Rotterdam, Netherlands

11:33 AM CEST on September 27, 2016 (GMT +0200)
Rotterdam

Weather History for EHRD - February, 2014

Change the Weather History Date:

Thursday, February 13, 2014

  Actual Average Record
Temperature  
Mean Temperature 42 °F -  
Max Temperature 45 °F 44 °F 59 °F (1998)
Min Temperature 39 °F 33 °F 15 °F (1999)
Degree Days  
Heating Degree Days 23    
Moisture  
Dew Point 37 °F    
Average Humidity 82    
Maximum Humidity 93    
Minimum Humidity 64    
Precipitation  
Precipitation 0.03 in - - ()
Sea Level Pressure  
Sea Level Pressure 29.32 in    
Wind  
Wind Speed 16 mph ()    
Max Wind Speed 24 mph    
Max Gust Speed 36 mph    
Visibility 8.0 miles    
Events Rain , Thunderstorm    
Averages and records for this station are not official NWS values.
T = Trace of Precipitation, MM = Missing Value Source: Averaged Metar Reports

Daily Weather History Graph

Daily Weather History Graph

Search for Another Location

Airport or City:

Trip Planner

Search our weather history database for the weather conditions in past years. The results will help you decide how hot, cold, wet, or windy it might be!

Date:

Astronomy

Feb. 13, 2014 Rise Set
Actual Time 8:01 AM CET 5:52 PM CET
Civil Twilight 7:26 AM CET 6:27 PM CET
Nautical Twilight 6:46 AM CET 7:07 PM CET
Astronomical Twilight 6:07 AM CET 7:46 PM CET
Moon 4:45 PM CET (2/13) 6:48 AM CET (2/13)
Length of Visible Light 11h 01m
Length of Day
9h 51m
Waxing Gibbous, 98% of the Moon is Illuminated
Feb 13
Waxing Gibbous
Feb 15
Full
Feb 22
Last Quarter
Mar 1
New
Mar 8
First Quarter

Hourly Weather History & Observations

Time (CET) Temp. Windchill Dew Point Humidity Pressure Visibility Wind Dir Wind Speed Gust Speed Precip Events Conditions
12:00 AM 44 °F - 40 °F 79% 29.30 in 16 mi SSW 20.1 mph - - Rain Rain
12:25 AM 42.8 °F 34.3 °F 39.2 °F 87% 29.27 in 6.2 mi SSW 19.6 mph - N/A   Partly Cloudy
12:55 AM 42.8 °F 34.3 °F 37.4 °F 81% 29.30 in 6.2 mi SSW 19.6 mph - N/A   Unknown
1:00 AM 43 °F - 38 °F 77% 29.31 in 12 mi SSW 22.4 mph - -   Partly Cloudy
1:25 AM 42.8 °F 34.3 °F 37.4 °F 81% 29.30 in 6.2 mi SSW 19.6 mph - N/A   Unknown
1:55 AM 42.8 °F 33.5 °F 37.4 °F 81% 29.30 in 6.2 mi SSW 23.0 mph - N/A   Scattered Clouds
2:00 AM 43 °F - 37 °F 73% 29.32 in 14 mi SSW 22.4 mph - -   Scattered Clouds
2:25 AM 42.8 °F 33.5 °F 37.4 °F 81% 29.30 in 6.2 mi SSW 23.0 mph - N/A   Scattered Clouds
2:55 AM 41.0 °F 30.9 °F 37.4 °F 87% 29.33 in 6.2 mi SW 24.2 mph - N/A   Drizzle
3:00 AM 43 °F - 38 °F 74% 29.33 in 11 mi SSW 20.1 mph - - Rain Rain
3:25 AM 42.8 °F 33.8 °F 37.4 °F 81% 29.33 in 6.2 mi SSW 21.9 mph - N/A   Mostly Cloudy
3:55 AM 42.8 °F 33.5 °F 35.6 °F 76% 29.30 in 6.2 mi SSW 23.0 mph 34.5 mph N/A   Scattered Clouds
4:00 AM 41 °F - 37 °F 80% 29.33 in 10 mi SSW 22.4 mph - - Rain Light Drizzle
4:25 AM 42.8 °F 34.0 °F 37.4 °F 81% 29.30 in 6.2 mi SW 20.7 mph 32.2 mph N/A   Mostly Cloudy
4:55 AM 42.8 °F 33.3 °F 37.4 °F 81% 29.30 in 6.2 mi SSW 24.2 mph 35.7 mph N/A   Mostly Cloudy
5:00 AM 42 °F - 36 °F 74% 29.33 in 16 mi SW 22.4 mph - - Rain Drizzle
5:25 AM 41.0 °F 31.6 °F 35.6 °F 81% 29.30 in 6.2 mi SSW 20.7 mph - N/A   Partly Cloudy
5:55 AM 41.0 °F 31.9 °F 35.6 °F 81% 29.30 in 6.2 mi SSW 19.6 mph - N/A   Unknown
6:00 AM 41 °F - 35 °F 70% 29.32 in 22 mi SSW 20.1 mph - -   Partly Cloudy
6:25 AM 41.0 °F 31.6 °F 35.6 °F 81% 29.30 in 6.2 mi SSW 20.7 mph - N/A   Unknown
6:55 AM 39.2 °F 29.8 °F 35.6 °F 87% 29.33 in 6.2 mi SSW 18.4 mph - N/A   Unknown
7:00 AM 40 °F - 35 °F 77% 29.33 in 28 mi SSW 17.9 mph - -   Partly Cloudy
7:25 AM 39.2 °F 30.5 °F 35.6 °F 87% 29.30 in 6.2 mi South 16.1 mph - N/A   Unknown
7:55 AM 39.2 °F 30.5 °F 35.6 °F 87% 29.33 in 6.2 mi South 16.1 mph - N/A   Mostly Cloudy
8:00 AM 40 °F - 36 °F 81% 29.33 in 15 mi South 17.9 mph - -   Scattered Clouds
8:25 AM 39.2 °F 30.5 °F 35.6 °F 87% 29.30 in 6.2 mi South 16.1 mph - N/A   Unknown
8:55 AM 41.0 °F 32.8 °F 35.6 °F 81% 29.30 in 6.2 mi SSW 16.1 mph - N/A   Partly Cloudy
9:00 AM 40 °F - 36 °F 82% 29.32 in 11 mi SSW 15.7 mph - -   Overcast
9:25 AM 41.0 °F 33.1 °F 37.4 °F 87% 29.30 in 6.2 mi SSW 15.0 mph - N/A   Partly Cloudy
9:55 AM 41.0 °F 33.9 °F 37.4 °F 87% 29.30 in 6.2 mi South 12.7 mph - N/A   Unknown
10:00 AM 41 °F - 37 °F 80% 29.30 in 9 mi South 13.4 mph - -   Scattered Clouds
10:25 AM 41.0 °F 33.9 °F 37.4 °F 87% 29.27 in 6.2 mi South 12.7 mph - N/A   Partly Cloudy
10:55 AM 42.8 °F 36.2 °F 37.4 °F 81% 29.27 in 6.2 mi South 12.7 mph - N/A   Unknown
11:00 AM 43 °F - 38 °F 77% 29.28 in 8 mi South 13.4 mph - -   Overcast
11:25 AM 42.8 °F 36.6 °F 39.2 °F 87% 29.27 in 6.2 mi South 11.5 mph - N/A   Partly Cloudy
11:55 AM 44.6 °F 38.4 °F 39.2 °F 81% 29.24 in 6.2 mi South 12.7 mph - N/A   Unknown
12:00 PM 44 °F - 39 °F 77% 29.26 in 9 mi South 13.4 mph - -   Scattered Clouds
12:25 PM 44.6 °F 38.4 °F 39.2 °F 81% 29.24 in 6.2 mi South 12.7 mph - N/A   Partly Cloudy
12:55 PM 44.6 °F 37.2 °F 39.2 °F 81% 29.24 in 6.2 mi South 17.3 mph - N/A   Mostly Cloudy
1:00 PM 44 °F - 39 °F 76% 29.25 in 11 mi SSW 15.7 mph - -   Partly Cloudy
1:25 PM 44.6 °F 37.8 °F 39.2 °F 81% 29.24 in 6.2 mi SSW 15.0 mph - N/A   Mostly Cloudy
1:55 PM 42.8 °F 36.2 °F 39.2 °F 87% 29.24 in 6.2 mi SSW 12.7 mph - N/A   Mostly Cloudy
2:00 PM 43 °F - 39 °F 81% 29.26 in 19 mi South 15.7 mph - - Rain Rain Showers
2:25 PM 42.8 °F 35.8 °F 39.2 °F 87% 29.24 in 6.2 mi South 13.8 mph - N/A Rain Light Rain
2:55 PM 41.0 °F 34.3 °F 39.2 °F 93% 29.24 in 6.2 mi SSW 11.5 mph - N/A Rain Light Rain
3:00 PM 41 °F - 38 °F 87% 29.26 in 11 mi South 11.2 mph - - Rain Light Rain Showers
3:25 PM 41.0 °F 34.3 °F 39.2 °F 93% 29.24 in 6.2 mi South 11.5 mph - N/A   Overcast
3:55 PM 41.0 °F 34.3 °F 39.2 °F 93% 29.27 in 6.2 mi SSW 11.5 mph - N/A   Drizzle
4:00 PM 41 °F - 39 °F 89% 29.28 in 7 mi SW 13.4 mph - - Rain Drizzle
4:25 PM 41.0 °F 33.9 °F 39.2 °F 93% 29.27 in 6.2 mi SW 12.7 mph - N/A   Mostly Cloudy
4:55 PM 41.0 °F 34.7 °F 39.2 °F 93% 29.30 in 6.2 mi SW 10.4 mph - N/A   Overcast
5:00 PM 41 °F - 39 °F 89% 29.31 in 19 mi SW 13.4 mph - - Rain Drizzle
5:25 PM 41.0 °F 33.5 °F 39.2 °F 93% 29.30 in 6.2 mi SW 13.8 mph - N/A   Scattered Clouds
5:55 PM 41.0 °F 33.9 °F 37.4 °F 87% 29.30 in 6.2 mi SW 12.7 mph - N/A   Partly Cloudy
6:00 PM 40 °F - 38 °F 89% 29.33 in 22 mi SW 11.2 mph - -   Partly Cloudy
6:25 PM 41.0 °F 33.9 °F 39.2 °F 93% 29.33 in 6.2 mi SW 12.7 mph - N/A   Partly Cloudy
6:55 PM 39.2 °F 29.6 °F 35.6 °F 87% 29.36 in 6.2 mi West 19.6 mph - N/A Rain , Thunderstorm Light Thunderstorms and Rain
7:00 PM 40 °F - 34 °F 72% 29.37 in 28 mi WSW 20.1 mph - - Rain Light Rain Showers
7:25 PM 39.2 °F 31.6 °F 33.8 °F 81% 29.36 in 6.2 mi WSW 12.7 mph - N/A   Unknown
7:55 PM 39.2 °F 32.0 °F 33.8 °F 81% 29.39 in 6.2 mi WSW 11.5 mph - N/A   Unknown
8:25 PM 39.2 °F 32.5 °F 35.6 °F 87% 29.39 in 6.2 mi SW 10.4 mph - N/A   Partly Cloudy
8:55 PM 39.2 °F 32.0 °F 35.6 °F 87% 29.42 in 6.2 mi SW 11.5 mph - N/A   Partly Cloudy
9:00 PM 40 °F - 36 °F 78% 29.44 in 22 mi SW 11.2 mph - -   Unknown Precipitation
9:25 PM 41.0 °F 34.7 °F 35.6 °F 81% 29.44 in 6.2 mi WSW 10.4 mph - N/A   Mostly Cloudy
9:55 PM 42.8 °F 37.0 °F 33.8 °F 70% 29.44 in 6.2 mi WSW 10.4 mph - N/A   Scattered Clouds
10:00 PM 42 °F - 34 °F 64% 29.46 in 19 mi WSW 11.2 mph - -   Partly Cloudy
10:25 PM 41.0 °F 33.9 °F 33.8 °F 76% 29.44 in 6.2 mi WSW 12.7 mph - N/A   Unknown
10:55 PM 42.8 °F 36.2 °F 35.6 °F 76% 29.47 in 6.2 mi SW 12.7 mph - N/A   Mostly Cloudy
11:00 PM 42 °F - 35 °F 67% 29.49 in 16 mi SW 15.7 mph - -   Partly Cloudy
11:25 PM 42.8 °F 35.4 °F 35.6 °F 76% 29.47 in 6.2 mi SW 15.0 mph - N/A   Scattered Clouds
11:55 PM 42.8 °F 35.8 °F 33.8 °F 70% 29.50 in 6.2 mi WSW 13.8 mph - N/A   Partly Cloudy